Location: Cr�ach-Carnel
(48.3571°N, 4.1949°W)
Time: 12:59:19
(UTC+00:00)

Daily predictions for brighter satellites

Satellite Brightness Start Highest point End
(mag) Time Altitude Azimuth Time Altitude Azimuth Time Altitude Azimuth
BREEZE-M DEB (TANK) 4.2 19:57:30 10° WNW 20:02:00 88° NNE 20:19:51 10° ESE
ERS-2 3.1 20:20:08 10° N 20:23:41 52° WNW 20:27:13 10° SSW
Cosmos 1606 3.4 20:20:53 10° SSW 20:24:36 59° WNW 20:28:22 10° N
Cosmos 2278 Rocket 3.5 20:20:40 10° SE 20:24:37 20° E 20:28:35 10° NE
BREEZE-M DEB (TANK) 1.5 20:22:03 10° W 20:24:54 66° N 20:26:54 10° E
Cosmos 1602 4.2 20:21:30 10° N 20:25:13 43° ENE 20:28:55 10° SSE
USA 305 3.7 20:22:00 10° WNW 20:26:09 48° NNE 20:30:18 10° E
Cosmos 1782 3.6 20:24:02 10° SSE 20:27:35 32° E 20:31:10 10° NNE
Landsat 7 4.3 20:23:52 10° SE 20:28:25 46° ENE 20:32:58 10° N
Cosmos 1844 Rocket 2.9 20:22:52 10° SSW 20:28:26 80° WNW 20:34:04 10° NNE
IGS 5A 3.8 20:25:19 10° SE 20:29:18 49° ENE 20:33:19 10° N
Cosmos 1242 Rocket 2.7 20:26:34 10° S 20:30:02 52° E 20:33:30 10° NNE
Intercosmos 25 Rocket 4.4 20:24:23 10° NNW 20:30:43 67° W 20:34:41 10° S
BREEZE-M DEB (TANK) 4.2 20:21:02 10° WNW 20:32:15 56° SW 20:35:38 10° SE
Cosmos 1805 Rocket 3.9 20:28:31 10° NNW 20:32:51 68° W 20:37:10 10° S
ERS-1 Rocket 4.5 20:30:54 10° ESE 20:34:42 22° ENE 20:38:31 10° N
CZ-4C R/B 3.2 20:28:41 10° NW 20:35:39 65° NE 20:43:47 10° SE
SJ-6B 4.3 20:34:18 10° SSW 20:37:55 37° W 20:41:40 10° NNW
BREEZE M DEB (TANK) 4.1 20:34:09 10° WSW 20:38:01 90° SSE 20:51:24 10° ENE
Cosmos 1633 Rocket 3.3 20:34:42 10° N 20:39:02 55° ENE 20:43:22 10° SSE
ATLAS 5 CENTAUR R/B 2.6 20:39:37 10° NW 20:45:09 65° SW 20:51:41 10° SSE
USA 306 3.4 20:41:20 10° WNW 20:45:33 56° NNE 20:49:45 10° E
Meteor 1-25 Rocket 4.5 20:41:29 10° NNW 20:47:21 80° W 20:53:11 10° S
Cosmos 1328 Rocket 3.9 20:45:46 10° SSE 20:50:00 47° E 20:54:15 10° NNE
Cosmos 1503 Rocket 4.0 20:44:53 10° SSW 20:50:03 88° ESE 20:55:19 10° NNE
Cosmos 1812 3.9 20:47:18 12° SE 20:50:05 26° E 20:53:19 10° NNE
Cosmos 1470 Rocket 4.1 20:46:59 10° N 20:51:18 44° ENE 20:55:01 13° SE
Cosmos 1777 Rocket 4.5 20:46:39 10° S 20:51:26 39° ESE 20:56:15 10° NE
ARIANE 5 R/B 3.3 20:52:22 13° SE 20:55:47 38° ENE 20:59:47 10° N
Ariane Rocket 4.0 20:53:15 10° S 20:58:05 46° W 21:02:59 10° NNW
Cosmos 1666 3.9 20:55:03 10° NNE 20:58:16 27° ENE 21:00:29 16° ESE
Cosmos 1844 4.4 20:53:01 10° SW 20:58:40 60° WNW 21:04:17 10° NNE
CRYOSAT 2 4.5 20:54:02 10° SSE 20:58:52 63° E 21:03:42 10° N
CARTOSAT-1 4.3 20:56:42 14° SE 20:59:56 38° ENE 21:03:57 10° N
Cosmos 1833 Rocket 2.9 20:56:51 10° NNW 21:02:30 64° ENE 21:07:04 16° SE
Meteor 1-5 Rocket 4.4 20:58:58 10° N 21:04:14 51° ENE 21:08:22 16° SE
BREEZE-M R/B 1.5 21:02:12 10° WSW 21:04:45 85° SSE 21:07:17 10° ENE
Cosmos 1933 Rocket 4.2 21:01:27 10° N 21:05:32 39° ENE 21:08:26 17° SE
Cosmos 1437 2.4 21:05:01 13° S 21:07:23 59° E 21:10:12 10° NNE
Cosmos 1666 Rocket 3.9 21:03:06 10° NNW 21:07:28 64° W 21:11:46 10° S
Cosmos 1709 Rocket 4.1 21:03:25 10° NNW 21:09:33 78° W 21:15:38 10° S
USA 307 3.1 21:07:58 10° WNW 21:12:15 70° NNE 21:15:38 16° ESE
Cosmos 2184 Rocket 4.4 21:07:06 10° N 21:13:05 46° ENE 21:17:33 17° SE
CZ-2C R/B 3.6 21:10:45 10° NNE 21:15:16 75° ESE 21:19:48 10° S
Cosmos 2074 Rocket 4.3 21:11:30 10° N 21:17:39 51° ENE 21:22:14 18° SE
NOSS 3-4 (A) 4.1 21:11:06 10° NW 21:17:54 63° NE 21:24:06 16° ESE
NOSS 3-4 (C) 4.1 21:11:13 10° NW 21:18:01 63° NE 21:24:13 16° ESE
USA 245 1.7 21:20:53 36° SSE 21:21:39 89° ENE 21:23:55 10° NNW
SJ 16-02 1.9 21:19:30 17° SSE 21:22:23 38° ESE 21:26:30 10° NE
USA 308 2.9 21:21:34 10° WNW 21:25:53 80° NNE 21:28:44 21° ESE
NOSS 3-3 (A) 3.9 21:21:54 10° SW 21:27:42 89° NW 21:34:25 10° NE
NOSS 3-3 (C) 3.9 21:22:01 10° SW 21:27:49 90° WNW 21:34:32 10° NE
SPOT 1/Viking Rocket 3.7 21:23:33 14° S 21:28:01 76° WSW 21:33:14 10° NNW
Cosmos 1500 3.3 21:24:34 10° NNW 21:28:20 69° W 21:30:59 18° S
ATLAS 2AS CENTAUR R/B 3.4 21:24:02 10° NW 21:31:20 51° NE 21:37:04 15° ESE
Cosmos 2315 Rocket 4.4 21:28:41 10° SSW 21:35:02 68° WNW 21:41:26 10° N
Iridium 4 Rocket 3.9 21:30:59 18° SSE 21:35:15 62° E 21:41:07 10° N
CREW DRAGON DEMO-1 DEB 2.3 21:32:44 10° WNW 21:35:23 75° SSW 21:35:56 49° SE
Terra 2.3 21:33:01 23° SE 21:35:41 47° ENE 21:40:16 10° N
X-37B 2.5 21:34:34 10° WSW 21:36:45 17° SSW 21:36:59 17° SSW
USA 215 4.4 21:32:31 10° ENE 21:38:35 42° N 21:44:38 10° WNW
Cosmos 1151 Rocket 4.1 21:35:29 10° SSW 21:39:39 44° WNW 21:43:53 10° N
SPOT 5 3.0 21:38:32 23° SSE 21:41:46 74° ENE 21:47:04 10° N
Cosmos 2082 Rocket 2.3 21:36:51 10° NNW 21:42:29 67° ENE 21:45:50 25° SE
Cosmos 158 Rocket 3.9 21:39:21 10° NNW 21:44:14 69° ENE 21:46:51 27° SE
Resurs 01 Rocket 3.4 21:40:47 10° SSW 21:44:33 27° W 21:48:21 10° NW
Cosmos 2084 3.9 21:40:46 10° SW 21:44:53 62° NW 21:49:08 10° NE
Cosmos 2228 Rocket 3.5 21:45:34 29° SSE 21:47:26 46° E 21:51:42 10° NNE
Cosmos 44 4.4 21:43:16 10° NNW 21:48:27 41° NE 21:51:59 18° ESE
COSMOS 2406 3.5 21:43:25 10° NNW 21:49:00 62° WSW 21:52:37 22° S
Cosmos 1538 Rocket 4.3 21:50:38 10° NNW 21:55:57 63° WSW 21:59:07 24° S
Cosmos 1271 Rocket 2.7 21:54:20 29° S 21:56:18 77° E 22:00:20 10° NNE
Meteor 2-6 Rocket 4.2 21:54:18 12° SSW 21:59:18 77° WNW 22:04:53 10° N
BREEZE-M DEB (TANK) 4.0 21:50:02 10° W 21:59:49 60° NNW 22:02:48 10° ENE
Meteor 1-27 Rocket 3.9 21:58:45 26° SSE 22:01:57 57° E 22:07:45 10° NNE
CZ-4B DEB 4.1 22:04:46 56° SSE 22:05:21 82° ENE 22:08:34 10° N
Spot 2 Rocket 4.2 22:02:17 19° SSW 22:05:44 47° W 22:10:36 10° NNW
USA 305 3.1 22:02:01 10° WNW 22:06:12 57° SW 22:07:26 40° SSE
Cosmos 2278 Rocket 2.4 22:02:25 10° SW 22:08:05 74° WNW 22:13:46 10° NNE
Milstar 3 4.4 21:59:59 10° SW 22:09:04 23° S 22:10:46 22° S
Cosmos 1937 Rocket 4.4 22:09:31 27° ESE 22:10:13 28° E 22:14:33 10° NE
SL-24 R/B - RUBIN 2 4.4 22:05:01 10° NW 22:10:34 56° NE 22:13:07 28° ESE
Cosmos 1515 Rocket 4.5 22:06:42 12° SSW 22:10:38 46° WNW 22:14:54 10° N
Cosmos 1680 Rocket 3.6 22:07:12 10° NNW 22:12:32 67° ENE 22:14:52 34° SE
ERS-1 Rocket 3.3 22:10:19 26° S 22:13:06 60° WSW 22:18:05 10° NNW
Cosmos 1869 Rocket 3.4 22:10:13 10° N 22:14:34 87° ENE 22:16:04 41° S
Cosmos 1943 Rocket 3.1 22:13:55 27° ESE 22:14:40 28° ESE 22:19:21 10° NE
Cosmos 2369 Rocket 3.9 22:17:10 16° E 22:17:10 16° E 22:20:26 10° ENE
Gbstr 26 Del rocket 4.3 22:10:26 10° WNW 22:18:06 74° NNE 22:23:48 14° E
Cosmos 1238 Rocket 4.4 22:17:03 10° N 22:23:01 44° ENE 22:25:13 31° ESE
CZ-4C R/B 3.8 22:17:25 10° NW 22:24:14 41° WSW 22:28:58 22° S
USA 306 3.4 22:21:24 10° WNW 22:25:27 43° SW 22:26:02 41° SSW
Meteor 1-11 Rocket 4.1 22:21:19 10° NNW 22:27:15 66° W 22:30:24 28° S
Okean 1 4.3 22:29:36 32° E 22:29:36 32° E 22:33:10 10° NNE
Cosmos 1340 Rocket 2.8 22:26:09 10° N 22:30:16 76° ENE 22:31:03 55° SSE
Cosmos 1818 4.0 22:26:08 10° NNW 22:31:34 56° NE 22:34:12 29° ESE
ARIANE 5 R/B 4.3 22:29:54 16° SW 22:32:20 25° W 22:35:55 10° NW
Cosmos 1707 Rocket 3.6 22:32:59 49° SE 22:33:48 59° E 22:38:09 10° NNE
SL-8 Rocket 4.3 22:32:44 10° N 22:38:58 57° ENE 22:41:32 35° SE
ALOS 2 4.1 22:41:06 23° E 22:42:18 26° ENE 22:45:56 10° N
Cosmos 1536 3.5 22:41:24 10° NNW 22:45:19 48° W 22:46:16 39° SW
Cosmos 1833 Rocket 4.4 22:41:35 10° NW 22:45:57 23° WSW 22:48:46 16° SW
Cosmos 1743 2.6 22:45:17 10° NNW 22:49:09 80° W 22:49:32 70° SSW
Cosmos 1898 Rocket 3.4 22:47:28 40° S 22:49:27 79° ESE 22:54:49 10° NNE
USA 307 4.0 22:48:14 10° WNW 22:51:43 30° SW 22:51:43 30° SW
H-2A R/B 4.4 22:48:47 10° N 22:52:48 45° WNW 22:54:45 26° SW
Cosmos 1975 3.3 22:56:26 10° N 23:00:17 45° ENE 23:00:28 45° E
SJ 16-02 3.3 22:57:17 10° WSW 23:01:04 27° WNW 23:04:52 10° N
RESURS DK-1 4.1 22:58:29 10° N 23:01:59 25° NE 23:03:31 21° E
Cosmos 990 Rocket 4.2 23:00:01 29° SW 23:02:42 69° WNW 23:07:58 10° NNE
Cosmos 1733 Rocket 2.9 23:00:00 10° N 23:04:21 85° W 23:04:54 67° S
USA 308 4.4 23:02:00 10° W 23:04:49 24° WSW 23:04:49 24° WSW
Cosmos 864 Rocket 4.5 23:00:14 10° N 23:06:24 70° E 23:08:29 43° SSE
Cosmos 1461 3.7 23:07:22 42° ESE 23:07:22 42° ESE 23:11:17 10° NE
Cosmos 2297 3.6 23:04:38 37° SSW 23:07:02 88° ESE 23:12:45 10° NNE
Cosmos 372 Rocket 4.2 23:07:02 46° ESE 23:07:29 47° ESE 23:12:22 10° NNE
Cosmos 1959 Rocket 4.4 23:02:54 10° N 23:09:10 76° E 23:11:16 44° SSE
Cosmos 1900 4.3 23:09:19 44° SSW 23:10:59 86° SE 23:16:04 10° NE
Cosmos 1544 4.4 23:07:53 10° NNW 23:11:05 30° W 23:11:19 30° W
Terra 3.5 23:11:54 19° SW 23:13:40 24° W 23:17:30 10° NW
ERBS 2.9 23:13:14 10° NW 23:16:00 53° NNW 23:16:00 53° NNW
Meteor 1-18 Rocket 4.2 23:16:27 50° SSE 23:17:56 74° E 23:23:32 10° NNE
Cosmos 1908 Rocket 3.9 23:14:48 10° N 23:19:13 54° ENE 23:19:43 51° ESE
USA 215 3.7 23:14:35 10° E 23:20:59 60° NNE 23:27:24 10° NW
ATLAS 2AS CENTAUR R/B 3.1 23:15:22 10° NW 23:22:22 50° WSW 23:24:29 38° SSW
Cosmos 1867 4.4 23:25:56 34° ESE 23:25:56 34° ESE 23:30:35 10° NE
Cosmos 2082 Rocket 3.8 23:21:52 10° NW 23:26:01 22° W 23:27:41 19° SW
Cosmos 44 4.0 23:24:40 10° NW 23:29:47 43° WSW 23:30:23 42° SW
Cosmos 2181 Rocket 4.0 23:29:26 42° SSW 23:31:41 78° W 23:37:51 10° N
Spot 4 4.0 23:34:25 54° SW 23:35:12 62° WSW 23:40:02 10° NNW
Cosmos 2084 Rocket 3.9 23:31:57 10° NW 23:35:44 48° WSW 23:35:44 48° WSW
ATLAS CENTAUR R/B 3.5 23:38:29 14° ENE 23:38:29 14° ENE 23:39:17 10° ENE
Cosmos 2366 rocket 4.1 23:32:31 10° NNW 23:38:40 68° W 23:40:37 44° SSW
Cosmos 1821 Rocket 4.3 23:32:54 10° N 23:39:15 60° ENE 23:41:25 40° SE
Cosmos 1862 Rocket 4.3 23:47:47 40° WSW 23:48:30 44° WNW 23:52:39 10° N
Cosmos 1703 Rocket 3.5 23:48:52 69° ESE 23:48:56 69° E 23:53:20 10° NNE
Okean 3 4.4 23:50:46 37° E 23:50:46 37° E 23:54:33 10° NNE
Cosmos 1782 Rocket 3.7 23:46:37 10° N 23:51:04 63° ENE 23:51:22 61° ESE
Cosmos 1937 Rocket 4.3 23:49:39 28° WSW 23:51:56 45° WNW 23:56:56 10° NNE
Lacrosse 5 4.2 23:54:51 11° E 23:54:51 11° E 23:55:27 10° E
